Barranquilla, Colombia

5:18 PM -05 on August 20, 2017 (GMT -0500)
Ernesto Cortissoz

Weather History for SKBQ - December, 2012

Change the Weather History Date:

Tuesday, December 4, 2012

  Actual Average Record
Temperature  
Mean Temperature 84 °F -  
Max Temperature 91 °F 89 °F 91 °F (1998)
Min Temperature 78 °F 75 °F 73 °F (1998)
Cooling Degree Days 20    
Growing Degree Days 34 (Base 50)    
Moisture  
Dew Point 73 °F    
Average Humidity 71    
Maximum Humidity 94    
Minimum Humidity 52    
Precipitation  
Precipitation 0.00 in 0.03 in - ()
Sea Level Pressure  
Sea Level Pressure 29.86 in    
Wind  
Wind Speed 9 mph ()    
Max Wind Speed 16 mph    
Max Gust Speed -    
Visibility 6.1 miles    
Events      
Averages and records for this station are not official NWS values.
T = Trace of Precipitation, MM = Missing Value Source: Averaged Metar Reports

Daily Weather History Graph

Daily Weather History Graph

Search for Another Location

Airport or City:

Trip Planner

Search our weather history database for the weather conditions in past years. The results will help you decide how hot, cold, wet, or windy it might be!

Date:

Astronomy

Dec. 04, 2012 Rise Set
Actual Time 6:03 AM -05 5:35 PM -05
Civil Twilight 5:41 AM -05 5:57 PM -05
Nautical Twilight 5:14 AM -05 6:24 PM -05
Astronomical Twilight 4:48 AM -05 6:50 PM -05
Moon 10:40 PM -05 (12/4) 10:31 AM -05 (12/4)
Length of Visible Light 12h 16m
Length of Day
11h 31m
Waning Gibbous, 69% of the Moon is Illuminated
Dec 4
Waning Gibbous
Dec 6
Last Quarter
Dec 13
New
Dec 20
First Quarter
Dec 28
Full

Hourly Weather History & Observations

Time (-05) Temp. Heat Index Dew Point Humidity Pressure Visibility Wind Dir Wind Speed Gust Speed Precip Events Conditions
12:00 AM 80.6 °F 85.4 °F 73.4 °F 79% 29.87 in - WNW 11.5 mph - N/A   Clear
1:00 AM 80.6 °F 85.4 °F 73.4 °F 79% 29.85 in - WNW 11.5 mph - N/A   Clear
2:00 AM 80.6 °F 85.4 °F 73.4 °F 79% 29.83 in - WNW 11.5 mph - N/A   Clear
2:54 AM 80.6 °F 85.4 °F 73.4 °F 79% 29.81 in - WNW 13.8 mph - N/A   Clear
3:00 AM 80.6 °F 85.4 °F 73.4 °F 79% 29.81 in - WNW 13.8 mph - N/A   Clear
4:00 AM 80 °F - 72 °F 70% 29.83 in 6 mi WNW 15.7 mph - -   Haze
4:00 AM 80.6 °F 84.6 °F 71.6 °F 74% 29.82 in - WNW 16.1 mph - N/A   Clear
5:00 AM 80.6 °F 85.4 °F 73.4 °F 79% 29.84 in - WNW 11.5 mph - N/A   Clear
6:00 AM 78.8 °F - 77.0 °F 94% 29.85 in - WNW 11.5 mph - N/A   Clear
7:00 AM 80.6 °F 84.6 °F 71.6 °F 74% 29.87 in - West 6.9 mph - N/A   Clear
8:00 AM 82.4 °F 89.5 °F 75.2 °F 79% 29.91 in - West 6.9 mph - N/A   Clear
9:00 AM 84.2 °F 92.3 °F 75.2 °F 74% 29.93 in 6.2 mi WNW 3.5 mph - N/A   Partly Cloudy
10:00 AM 86 °F - 75 °F 63% 29.94 in 6 mi West 4.5 mph - -   Haze
10:00 AM 86.0 °F 95.1 °F 75.2 °F 70% 29.93 in 6.2 mi West 4.6 mph - N/A   Partly Cloudy
11:00 AM 87.8 °F 93.8 °F 71.6 °F 58% 29.92 in 6.2 mi WSW 8.1 mph - N/A   Partly Cloudy
12:00 PM 91.4 °F 98.4 °F 71.6 °F 52% 29.89 in 6.2 mi WSW 9.2 mph - N/A   Partly Cloudy
1:00 PM 89 °F - 75 °F 56% 29.88 in 6 mi West 13.4 mph - -   Haze
1:00 PM 89.6 °F 99.8 °F 75.2 °F 62% 29.87 in 6.2 mi West 12.7 mph - N/A   Scattered Clouds
2:00 PM 87.8 °F 95.6 °F 73.4 °F 62% 29.85 in 6.2 mi West 12.7 mph - N/A   Partly Cloudy
3:00 PM 86.0 °F 91.8 °F 71.6 °F 62% 29.83 in 6.2 mi WNW 8.1 mph - N/A   Partly Cloudy
4:00 PM 86 °F - 71 °F 52% 29.84 in 6 mi NNE 11.2 mph - -   Haze
4:00 PM 86.0 °F 91.8 °F 71.6 °F 62% 29.83 in 6.2 mi NNE 11.5 mph - N/A   Partly Cloudy
5:00 PM 84.2 °F 88.4 °F 69.8 °F 62% 29.83 in 6.2 mi WNW 10.4 mph - N/A   Partly Cloudy
6:00 PM 82.4 °F 87.2 °F 71.6 °F 70% 29.83 in 6.2 mi WNW 5.8 mph - N/A   Scattered Clouds
7:00 PM 82 °F - 72 °F 66% 29.85 in 6 mi NW 6.7 mph - -   Haze
7:00 PM 82.4 °F 88.2 °F 73.4 °F 74% 29.84 in 6.2 mi NW 6.9 mph - N/A   Scattered Clouds
8:00 PM 82.4 °F 88.2 °F 73.4 °F 74% 29.86 in 6.2 mi WNW 5.8 mph - N/A   Partly Cloudy
9:00 PM 82.4 °F 89.5 °F 75.2 °F 79% 29.88 in 6.2 mi NW 6.9 mph - N/A   Partly Cloudy
10:00 PM 82 °F - 75 °F 74% 29.91 in 6 mi WNW 8.9 mph - -   Haze
10:00 PM 82.4 °F 89.5 °F 75.2 °F 79% 29.89 in 6.2 mi WNW 8.1 mph - N/A   Partly Cloudy
11:00 PM 82.4 °F 89.5 °F 75.2 °F 79% 29.87 in 6.2 mi WNW 10.4 mph - N/A   Partly Cloudy